N28ZA KSAN-KCRQ

Flight info

Callsign N28ZA
Flight time 0h 16m
Altitude 8000
Route KSAN OCN KCRQ
Aircraft C510/L-G/S

Departure

Time 2026-04-19 23:10
Airport San Diego International Airport (KSAN)

Arrival

Time 2026-04-19 23:26
Airport McClellan-Palomar Airport (KCRQ)
Time Latitude Longitude Altitude Speed Heading
2026-04-19 22:55 32.73374 -117.17981 23 ft 0 kts 160°
2026-04-19 23:06 32.73373 -117.17980 23 ft 1 kts 156°
2026-04-19 23:06 32.73349 -117.17959 23 ft 5 kts 161°
2026-04-19 23:06 32.73294 -117.17973 22 ft 9 kts 196°
2026-04-19 23:07 32.73226 -117.17956 22 ft 11 kts 112°
2026-04-19 23:07 32.73201 -117.17852 23 ft 13 kts 106°
2026-04-19 23:07 32.73171 -117.17733 24 ft 15 kts 107°
2026-04-19 23:07 32.73141 -117.17610 26 ft 11 kts 116°
2026-04-19 23:08 32.73109 -117.17567 26 ft 0 kts 144°
2026-04-19 23:08 32.73107 -117.17565 26 ft 3 kts 144°
2026-04-19 23:09 32.73028 -117.17536 26 ft 14 kts 214°
2026-04-19 23:09 32.73032 -117.17631 26 ft 20 kts 286°
2026-04-19 23:09 32.73156 -117.18140 19 ft 98 kts 288°
2026-04-19 23:09 32.73384 -117.19051 180 ft 122 kts 287°
2026-04-19 23:10 32.73797 -117.20004 645 ft 143 kts 301°
2026-04-19 23:10 32.74410 -117.21151 1205 ft 174 kts 300°
2026-04-19 23:10 32.75118 -117.22507 1777 ft 201 kts 300°
2026-04-19 23:10 32.75873 -117.23975 2292 ft 202 kts 300°
2026-04-19 23:11 32.76603 -117.25388 2777 ft 204 kts 301°
2026-04-19 23:11 32.77611 -117.26707 3278 ft 207 kts 332°
2026-04-19 23:11 32.79044 -117.27366 3815 ft 209 kts 340°
2026-04-19 23:11 32.80406 -117.27875 4291 ft 217 kts 344°
2026-04-19 23:12 32.81936 -117.28382 4805 ft 225 kts 345°
2026-04-19 23:12 32.83527 -117.28892 5316 ft 232 kts 345°
2026-04-19 23:12 32.85199 -117.29421 5838 ft 238 kts 345°
2026-04-19 23:12 32.86888 -117.29956 6354 ft 243 kts 345°
2026-04-19 23:13 32.88604 -117.30499 6865 ft 247 kts 345°
2026-04-19 23:13 32.90344 -117.31049 7370 ft 250 kts 345°
2026-04-19 23:13 32.92124 -117.31612 7857 ft 254 kts 345°
2026-04-19 23:13 32.93975 -117.32193 7958 ft 274 kts 347°
2026-04-19 23:14 32.95962 -117.32157 7950 ft 275 kts 21°
2026-04-19 23:14 32.97516 -117.30727 7889 ft 269 kts 56°
2026-04-19 23:14 32.98528 -117.28852 7513 ft 254 kts 60°
2026-04-19 23:14 32.99486 -117.27097 7132 ft 243 kts 60°
2026-04-19 23:15 33.00181 -117.25253 6729 ft 231 kts 81°
2026-04-19 23:15 33.00509 -117.23372 6356 ft 225 kts 81°
2026-04-19 23:15 33.00866 -117.21492 5968 ft 222 kts 81°
2026-04-19 23:15 33.01198 -117.19677 5592 ft 221 kts 81°
2026-04-19 23:16 33.01480 -117.18067 5269 ft 220 kts 81°
2026-04-19 23:16 33.01671 -117.16230 4897 ft 219 kts 91°
2026-04-19 23:16 33.01687 -117.14487 4551 ft 219 kts 90°
2026-04-19 23:16 33.01708 -117.12666 4189 ft 219 kts 91°
2026-04-19 23:17 33.01718 -117.10760 3988 ft 211 kts 91°
2026-04-19 23:17 33.01722 -117.08907 3979 ft 218 kts 91°
2026-04-19 23:17 33.01721 -117.07054 3979 ft 220 kts 91°
2026-04-19 23:17 33.01723 -117.05208 3978 ft 222 kts 91°
2026-04-19 23:18 33.01722 -117.03368 3979 ft 223 kts 91°
2026-04-19 23:18 33.01720 -117.01617 3980 ft 224 kts 91°
2026-04-19 23:18 33.01713 -116.99688 3981 ft 224 kts 91°
2026-04-19 23:18 33.01753 -116.97816 3970 ft 225 kts 80°
2026-04-19 23:19 33.02604 -116.96255 3982 ft 226 kts 34°
2026-04-19 23:19 33.04211 -116.95840 3991 ft 226 kts 353°
2026-04-19 23:19 33.05866 -116.95985 3990 ft 227 kts
2026-04-19 23:19 33.07489 -116.96388 3978 ft 225 kts 324°
2026-04-19 23:20 33.08640 -116.97790 3701 ft 227 kts 309°
2026-04-19 23:20 33.09635 -116.99057 3593 ft 214 kts 311°
2026-04-19 23:20 33.10629 -117.00355 3566 ft 195 kts 311°
2026-04-19 23:20 33.11485 -117.01445 3556 ft 177 kts 311°
2026-04-19 23:21 33.12330 -117.02533 3596 ft 156 kts 312°
2026-04-19 23:21 33.13067 -117.03480 3590 ft 161 kts 312°
2026-04-19 23:21 33.13861 -117.04495 3583 ft 161 kts 312°
2026-04-19 23:21 33.14457 -117.05456 3564 ft 158 kts 289°
2026-04-19 23:22 33.14586 -117.06705 3583 ft 159 kts 270°
2026-04-19 23:22 33.14622 -117.08111 3581 ft 162 kts 271°
2026-04-19 23:22 33.14651 -117.09489 3455 ft 166 kts 270°
2026-04-19 23:22 33.14675 -117.10841 3221 ft 154 kts 270°
2026-04-19 23:23 33.14695 -117.12110 3003 ft 149 kts 270°
2026-04-19 23:23 33.14716 -117.13373 2794 ft 147 kts 270°
2026-04-19 23:23 33.14738 -117.14605 2585 ft 145 kts 270°
2026-04-19 23:23 33.14752 -117.15828 2376 ft 143 kts 267°
2026-04-19 23:24 33.14599 -117.17004 2178 ft 142 kts 258°
2026-04-19 23:24 33.14407 -117.18179 1972 ft 141 kts 259°
2026-04-19 23:24 33.14221 -117.19343 1763 ft 140 kts 259°
2026-04-19 23:24 33.14039 -117.20475 1550 ft 135 kts 259°
2026-04-19 23:25 33.13862 -117.21570 1347 ft 131 kts 259°
2026-04-19 23:25 33.13688 -117.22662 1153 ft 133 kts 259°
2026-04-19 23:25 33.13509 -117.23769 963 ft 136 kts 260°
2026-04-19 23:25 33.13327 -117.24880 787 ft 132 kts 259°
2026-04-19 23:26 33.13140 -117.25986 596 ft 134 kts 259°
2026-04-19 23:26 33.12979 -117.27071 377 ft 122 kts 258°
2026-04-19 23:26 33.12841 -117.27900 307 ft 80 kts 260°
2026-04-19 23:26 33.12769 -117.28236 311 ft 20 kts 232°
2026-04-19 23:27 33.12710 -117.28252 311 ft 0 kts 117°
2026-04-19 23:27 33.12709 -117.28250 311 ft 1 kts 116°
2026-04-19 23:28 33.12695 -117.28220 311 ft 6 kts 136°
2026-04-19 23:28 33.12690 -117.28149 310 ft 9 kts 79°
2026-04-19 23:28 33.12692 -117.28132 310 ft 0 kts 78°